Terminal Aerodrome Forecast
Issued by NWS

Home | Current Version | Previous Version | Text Only | Print | Product List | Glossary On
Versions: 1 2 3 4 5 6 7 8 9 10 11 12 13 14 15 16 17 18
000
FTUS46 KMTR 202320
TAFSTS
TAF
KSTS 202320Z 2100/2124 21008KT P6SM SCT250
     FM210600 17005KT 2SM BR OVC004
      TEMPO 2106/2108 1/4SM FG VV001
     FM210800 VRB03KT 1/4SM FG VV001
     FM211730 20004KT P6SM FEW010 SCT200
     FM211800 19008KT P6SM SCT200=

USA.gov is the U.S. government's official web portal to all federal, state and local government web resources and services.